Location: Newark
(11.3000°S, 17.8000°E)
Time: 21:34:54
(UTC+00:00)

Envisat - Visible Passes

Search period start: 06 December 2019 00:00
Search period end: 16 December 2019 00:00
Orbit: 764 x 766 km, 98.1° (Epoch: 06 December)

Date Brightness Start Highest point End Pass type
(mag) Time Alt. Az. Time Alt. Az. Time Alt. Az.
06 Dec 5.5 18:10:52 10° SSW 18:14:49 23° WSW 18:18:45 10° NW visible
07 Dec 3.6 17:33:10 10° S 17:38:13 64° WSW 17:43:14 10° NNW visible
08 Dec 6.3 18:38:50 10° WSW 18:40:07 11° WSW 18:41:25 10° W visible
09 Dec 5.0 17:59:09 10° SSW 18:03:36 31° WSW 18:08:02 10° NW visible
10 Dec 3.1 17:21:52 10° S 17:26:58 87° WSW 17:32:03 10° NNW visible
11 Dec 6.0 18:26:03 10° SW 18:28:55 15° WSW 18:31:48 10° WNW visible
12 Dec 4.4 17:47:36 10° S 17:52:23 41° WSW 17:57:07 10° NW visible
14 Dec 5.7 18:14:01 10° SSW 18:17:43 21° WSW 18:21:25 10° WNW visible
15 Dec 3.8 17:36:09 10° S 17:41:08 57° WSW 17:46:06 10° NNW visible
